Dumas, TX

9:59 PM CST on December 02, 2016 (GMT -0600)
Moore County

Weather History for KDUX - September, 2012

Change the Weather History Date:

Wednesday, September 5, 2012

  Actual Average (KDHT) Record (KDHT)
Temperature  
Mean Temperature 76 °F 72 °F  
Max Temperature 91 °F 86 °F 103 °F (1995)
Min Temperature 62 °F 57 °F 39 °F (1961)
Degree Days  
Heating Degree Days 0 0  
Month to date heating degree days 0  
Since 1 July heating degree days 3  
Cooling Degree Days 12 7  
Month to date cooling degree days 37  
Year to date cooling degree days 1033  
Growing Degree Days 26 (Base 50)    
Moisture  
Dew Point 59 °F    
Average Humidity 61    
Maximum Humidity 94    
Minimum Humidity 26    
Precipitation  
Precipitation 0.00 in 0.06 in 0.77 in (2014)
Month to date precipitation 0.30  
Year to date precipitation 13.65  
Snow  
Snow 0.00 in 0.00 in 0.00 in ()
Month to date snowfall 0.0  
Since 1 July snowfall 0.0  
Since 1 September snowfall 0.0  
Snow Depth -    
Sea Level Pressure  
Sea Level Pressure 30.01 in    
Wind  
Wind Speed 9 mph (SSE)    
Max Wind Speed 23 mph    
Max Gust Speed 33 mph    
Visibility 10 miles    
Events Rain    
T = Trace of Precipitation, MM = Missing Value Source: NWS Daily Summary

Daily Weather History Graph

Daily Weather History Graph

Search for Another Location

Airport or City:

Trip Planner

Search our weather history database for the weather conditions in past years. The results will help you decide how hot, cold, wet, or windy it might be!

Date:

Astronomy

Sep. 05, 2012 Rise Set
Actual Time 7:23 AM CDT 8:09 PM CDT
Civil Twilight 6:57 AM CDT 8:34 PM CDT
Nautical Twilight 6:26 AM CDT 9:05 PM CDT
Astronomical Twilight 5:55 AM CDT 9:36 PM CDT
Moon 10:52 PM CDT (9/5) 12:17 PM CDT (9/5)
Length of Visible Light 13h 37m
Length of Day
12h 45m
Waning Gibbous, 76% of the Moon is Illuminated
Sep 5
Waning Gibbous
Sep 8
Last Quarter
Sep 15
New
Sep 22
First Quarter
Sep 29
Full

Hourly Weather History & Observations

Time (CDT) Temp. Heat Index Dew Point Humidity Pressure Visibility Wind Dir Wind Speed Gust Speed Precip Events Conditions
12:15 AM 69.8 °F - 60.8 °F 73% 30.00 in 10.0 mi SE 11.5 mph - N/A   Clear
12:35 AM 69.8 °F - 60.8 °F 73% 30.00 in 10.0 mi SE 10.4 mph - N/A   Clear
12:55 AM 69.8 °F - 60.8 °F 73% 29.99 in 10.0 mi SSE 11.5 mph - N/A   Clear
1:15 AM 69.8 °F - 60.8 °F 73% 30.00 in 10.0 mi SE 11.5 mph - N/A   Clear
1:35 AM 69.8 °F - 60.8 °F 73% 29.99 in 10.0 mi SSE 10.4 mph - N/A   Clear
1:55 AM 68.0 °F - 59.0 °F 73% 30.00 in 10.0 mi SSW 8.1 mph - N/A   Clear
2:15 AM 68.0 °F - 59.0 °F 73% 30.00 in 10.0 mi SSW 4.6 mph - N/A   Clear
2:35 AM 66.2 °F - 59.0 °F 78% 30.00 in 10.0 mi SSW 6.9 mph - N/A   Clear
2:55 AM 68.0 °F - 60.8 °F 78% 29.99 in 10.0 mi SW 6.9 mph - N/A   Clear
3:15 AM 66.2 °F - 60.8 °F 83% 29.99 in 10.0 mi South 5.8 mph - N/A   Clear
3:35 AM 64.4 °F - 60.8 °F 88% 29.99 in 10.0 mi South 6.9 mph - N/A   Clear
3:55 AM 66.2 °F - 59.0 °F 78% 29.99 in 10.0 mi South 8.1 mph - N/A   Clear
4:15 AM 68.0 °F - 60.8 °F 78% 30.00 in 10.0 mi South 6.9 mph - N/A   Clear
4:35 AM 68.0 °F - 60.8 °F 78% 29.99 in 10.0 mi SSE 8.1 mph - N/A   Clear
4:55 AM 66.2 °F - 60.8 °F 83% 29.99 in 10.0 mi SSE 6.9 mph - N/A   Clear
5:15 AM 64.4 °F - 60.8 °F 88% 29.99 in 10.0 mi SSE 8.1 mph - N/A   Clear
5:35 AM 64.4 °F - 60.8 °F 88% 30.00 in 10.0 mi SSE 6.9 mph - N/A   Clear
5:55 AM 64.4 °F - 60.8 °F 88% 30.00 in 10.0 mi SSE 6.9 mph - N/A   Clear
6:15 AM 64.4 °F - 60.8 °F 88% 30.00 in 10.0 mi South 5.8 mph - N/A   Clear
6:35 AM 62.6 °F - 60.8 °F 94% 30.00 in 10.0 mi SSW 8.1 mph - N/A   Clear
6:55 AM 62.6 °F - 60.8 °F 94% 30.00 in 10.0 mi South 4.6 mph - N/A   Clear
7:15 AM 62.6 °F - 60.8 °F 94% 30.00 in 10.0 mi SSW 6.9 mph - N/A   Clear
7:35 AM 62.6 °F - 59.0 °F 88% 30.00 in 10.0 mi SSW 6.9 mph - N/A   Clear
7:55 AM 64.4 °F - 60.8 °F 88% 30.00 in 10.0 mi SSW 6.9 mph - N/A   Clear
8:15 AM 68.0 °F - 60.8 °F 78% 30.01 in 10.0 mi South 4.6 mph - N/A   Clear
8:35 AM 69.8 °F - 60.8 °F 73% 30.01 in 10.0 mi SSW 5.8 mph - N/A   Clear
8:55 AM 73.4 °F - 60.8 °F 65% 30.01 in 10.0 mi SSW 9.2 mph - N/A   Clear
9:15 AM 75.2 °F - 60.8 °F 61% 30.01 in 10.0 mi SSW 9.2 mph - N/A   Clear
9:35 AM 78.8 °F - 59.0 °F 51% 30.02 in 10.0 mi SW 10.4 mph - N/A   Clear
10:15 AM 82.4 °F 82.0 °F 57.2 °F 42% 30.02 in 10.0 mi SW 8.1 mph - N/A   Clear
10:35 AM 84.2 °F 83.0 °F 55.4 °F 37% 30.02 in 10.0 mi WSW 4.6 mph - N/A   Clear
10:55 AM 86.0 °F 84.2 °F 53.6 °F 33% 30.03 in 10.0 mi West 6.9 mph - N/A   Clear
11:15 AM 86.0 °F 84.2 °F 53.6 °F 33% 30.04 in 10.0 mi NW 5.8 mph - N/A   Clear
11:35 AM 87.8 °F 86.1 °F 55.4 °F 33% 30.04 in 10.0 mi NNW 10.4 mph - N/A   Clear
11:55 AM 87.8 °F 85.7 °F 53.6 °F 31% 30.03 in 10.0 mi North 8.1 mph - N/A   Clear
12:15 PM 87.8 °F 86.1 °F 55.4 °F 33% 30.03 in 10.0 mi North 5.8 mph - N/A   Clear
12:35 PM 87.8 °F 86.1 °F 55.4 °F 33% 30.03 in 10.0 mi NNE 3.5 mph - N/A   Clear
12:55 PM 87.8 °F 86.1 °F 55.4 °F 33% 30.02 in 10.0 mi NNE 8.1 mph - N/A   Clear
1:15 PM 89.6 °F 88.9 °F 59.0 °F 36% 30.02 in 10.0 mi NE 9.2 mph 16.1 mph N/A   Clear
1:35 PM 87.8 °F 87.1 °F 59.0 °F 38% 30.02 in 10.0 mi East 9.2 mph - N/A   Clear
1:55 PM 89.6 °F 88.1 °F 57.2 °F 33% 30.01 in 10.0 mi ENE 8.1 mph - N/A   Clear
2:15 PM 89.6 °F 87.7 °F 55.4 °F 31% 30.01 in 10.0 mi East 4.6 mph - N/A   Clear
2:35 PM 89.6 °F 88.9 °F 59.0 °F 36% 30.01 in 10.0 mi ENE 8.1 mph - N/A   Clear
2:55 PM 91.4 °F 89.4 °F 55.4 °F 29% 30.01 in 10.0 mi NE 4.6 mph - N/A   Clear
3:15 PM 89.6 °F 87.7 °F 55.4 °F 31% 30.00 in 10.0 mi Calm Calm - N/A   Clear
3:35 PM 91.4 °F 89.4 °F 55.4 °F 29% 29.99 in 10.0 mi NNE 6.9 mph - N/A   Clear
3:55 PM 91.4 °F 89.4 °F 55.4 °F 29% 29.98 in 10.0 mi North 11.5 mph 16.1 mph N/A   Scattered Clouds
4:15 PM 91.4 °F 89.4 °F 55.4 °F 29% 29.97 in 10.0 mi NNE 9.2 mph - N/A   Scattered Clouds
4:35 PM 91.4 °F - 51.8 °F 26% 29.97 in 7.0 mi North 21.9 mph 33.4 mph N/A   Scattered Clouds
5:15 PM 87.8 °F - 50.0 °F 27% 29.97 in 7.0 mi North 23.0 mph 31.1 mph N/A   Clear
5:35 PM 87.8 °F - 50.0 °F 27% 29.99 in 10.0 mi North 20.7 mph 26.5 mph N/A   Clear
5:55 PM 86.0 °F - 50.0 °F 29% 29.99 in 10.0 mi North 19.6 mph 25.3 mph N/A   Clear
6:15 PM 84.2 °F - 48.2 °F 29% 30.00 in 10.0 mi North 12.7 mph 21.9 mph N/A   Scattered Clouds
6:35 PM 78.8 °F - 59.0 °F 51% 30.03 in 10.0 mi SE 19.6 mph 23.0 mph N/A   Mostly Cloudy
6:55 PM 75.2 °F - 60.8 °F 61% 30.03 in 10.0 mi ESE 17.3 mph 24.2 mph N/A   Scattered Clouds
7:15 PM 73.4 °F - 59.0 °F 61% 30.03 in 10.0 mi SE 18.4 mph 26.5 mph N/A   Clear
7:35 PM 73.4 °F - 57.2 °F 57% 30.03 in 10.0 mi SE 12.7 mph - N/A   Scattered Clouds
7:55 PM 71.6 °F - 60.8 °F 69% 30.02 in 10.0 mi SSE 11.5 mph - N/A Rain Light Rain
8:15 PM 69.8 °F - 60.8 °F 73% 30.01 in 10.0 mi SE 11.5 mph - N/A   Mostly Cloudy
8:35 PM 71.6 °F - 60.8 °F 69% 30.02 in 10.0 mi SE 10.4 mph - N/A   Scattered Clouds
8:55 PM 71.6 °F - 62.6 °F 73% 30.04 in 10.0 mi SSE 6.9 mph - N/A   Clear
9:15 PM 69.8 °F - 62.6 °F 78% 30.05 in 10.0 mi ESE 6.9 mph - N/A   Clear
9:35 PM 69.8 °F - 62.6 °F 78% 30.06 in 10.0 mi ESE 5.8 mph - N/A   Clear
9:55 PM 69.8 °F - 62.6 °F 78% 30.06 in 10.0 mi SE 9.2 mph - N/A   Clear
10:15 PM 69.8 °F - 62.6 °F 78% 30.06 in 10.0 mi SE 10.4 mph - N/A   Clear
10:35 PM 68.0 °F - 62.6 °F 83% 30.07 in 10.0 mi SE 10.4 mph - N/A   Clear
10:55 PM 68.0 °F - 64.4 °F 88% 30.07 in 10.0 mi SE 8.1 mph - N/A   Clear
11:15 PM 68.0 °F - 62.6 °F 83% 30.07 in 10.0 mi SE 8.1 mph - N/A   Clear
11:35 PM 68.0 °F - 60.8 °F 78% 30.07 in 10.0 mi SE 8.1 mph - N/A   Clear
11:55 PM 66.2 °F - 60.8 °F 83% 30.07 in 10.0 mi SSE 6.9 mph - N/A   Clear